Location: Newark
(45.6000°N, 12.8833°E)
Time: 01:50:11
(UTC+00:00)

Tiros 1 - All Passes

Search period start: 22 November 2019 00:00
Search period end: 02 December 2019 00:00
Orbit: 630 x 664 km, 48.4° (Epoch: 21 November)

Date Brightness Start Highest point End Pass type
(mag) Time Alt. Az. Time Alt. Az. Time Alt. Az.
22 Nov - 11:33:19 10° SSW 11:37:15 28° SE 11:41:12 10° E daylight
22 Nov - 13:14:29 10° WSW 13:19:06 89° SE 13:23:45 10° ENE daylight
22 Nov - 14:56:56 10° W 15:01:31 60° N 15:06:08 10° E daylight
22 Nov - 16:39:18 10° WNW 16:43:57 88° SSW 16:48:38 10° ESE visible
22 Nov - 18:21:50 10° W 18:25:48 28° SW 18:29:47 10° SSE visible
23 Nov - 10:19:35 10° SSE 10:21:40 13° SE 10:23:43 10° ESE daylight
23 Nov - 11:58:36 10° SW 12:03:05 52° SSE 12:07:34 10° ENE daylight
23 Nov - 13:40:39 10° W 13:45:16 68° N 13:49:53 10° ENE daylight
23 Nov - 15:23:09 10° WNW 15:27:46 67° N 15:32:24 10° E daylight
23 Nov - 17:05:26 10° WNW 17:09:58 55° SSW 17:14:31 10° SE visible
23 Nov - 18:49:03 10° WSW 18:51:26 14° SW 18:53:49 10° SSW visible
24 Nov - 10:43:25 10° SSW 10:47:16 26° SE 10:51:07 10° E daylight
24 Nov - 12:24:27 10° WSW 12:29:04 86° SSE 12:33:43 10° ENE daylight
24 Nov - 14:06:54 10° W 14:11:29 60° N 14:16:05 10° E daylight
24 Nov - 15:49:16 10° WNW 15:53:55 88° NNE 15:58:35 10° ESE daylight
24 Nov - 17:31:46 10° W 17:35:48 30° SW 17:39:51 10° SSE visible
25 Nov - 09:30:01 10° SSE 09:31:41 12° SE 09:33:22 10° ESE daylight
25 Nov - 11:08:37 10° SW 11:13:04 49° SSE 11:17:32 10° ENE daylight
25 Nov - 12:50:36 10° W 12:55:12 69° NNW 12:59:51 10° ENE daylight
25 Nov - 14:33:07 10° WNW 14:37:43 65° N 14:42:21 10° E daylight
25 Nov - 16:15:24 10° WNW 16:19:57 58° SSW 16:24:31 10° SE visible
25 Nov - 17:58:49 10° W 18:01:27 15° SW 18:04:06 10° S visible
26 Nov - 09:53:32 10° SSW 09:57:17 25° SE 10:01:02 10° E daylight
26 Nov - 11:34:25 10° WSW 11:39:03 82° SSE 11:43:41 10° ENE daylight
26 Nov - 13:16:51 10° W 13:21:26 60° N 13:26:01 10° E daylight
26 Nov - 14:59:15 10° WNW 15:03:53 85° NNE 15:08:33 10° ESE daylight
26 Nov - 16:41:42 10° W 16:45:49 32° SW 16:49:56 10° SSE visible
27 Nov - 08:40:36 10° SE 08:41:43 11° SE 08:42:50 10° ESE daylight
27 Nov - 10:18:38 10° SW 10:23:04 46° SSE 10:27:29 10° ENE daylight
27 Nov - 12:00:33 10° W 12:05:10 71° NNW 12:09:48 10° ENE daylight
27 Nov - 13:43:04 10° WNW 13:47:41 64° N 13:52:17 10° E daylight
27 Nov - 15:25:22 10° WNW 15:29:56 62° SSW 15:34:31 10° SE daylight
27 Nov - 17:08:37 10° W 17:11:29 16° SW 17:14:20 10° S visible
28 Nov - 09:03:39 10° SSW 09:07:17 23° SE 09:10:56 10° E daylight
28 Nov - 10:44:24 10° WSW 10:49:01 79° SSE 10:53:39 10° ENE daylight
28 Nov - 12:26:48 10° W 12:31:24 61° N 12:35:59 10° ENE daylight
28 Nov - 14:09:13 10° WNW 14:13:51 83° NNE 14:18:30 10° ESE daylight
28 Nov - 15:51:38 10° W 15:55:49 34° SW 15:59:59 10° SSE visible
29 Nov - 09:28:40 10° SW 09:33:03 43° SSE 09:37:26 10° ENE daylight
29 Nov - 11:10:30 10° W 11:15:08 73° NNW 11:19:46 10° ENE daylight
29 Nov - 12:53:02 10° WNW 12:57:38 63° N 13:02:14 10° E daylight
29 Nov - 14:35:20 10° WNW 14:39:55 65° SSW 14:44:30 10° SE daylight
29 Nov - 16:18:26 10° W 16:21:30 17° SW 16:24:33 10° S visible
30 Nov - 08:13:47 10° S 08:17:18 22° SE 08:20:49 10° E daylight
30 Nov - 09:54:22 10° WSW 09:59:00 75° SSE 10:03:37 10° ENE daylight
30 Nov - 11:36:45 10° W 11:41:21 61° N 11:45:57 10° ENE daylight
30 Nov - 13:19:11 10° WNW 13:23:50 80° NNE 13:28:28 10° ESE daylight
30 Nov - 15:01:34 10° W 15:05:48 36° SW 15:10:03 10° SSE daylight
01 Dec - 08:38:41 10° SW 08:43:03 41° SSE 08:47:24 10° ENE daylight
01 Dec - 10:20:27 10° W 10:25:06 75° NNW 10:29:44 10° ENE daylight
01 Dec - 12:02:59 10° WNW 12:07:36 62° N 12:12:11 10° E daylight
01 Dec - 13:45:18 10° WNW 13:49:54 69° SSW 13:54:30 10° ESE daylight
01 Dec - 15:28:17 10° W 15:31:31 19° SW 15:34:44 10° S daylight
